Back to catalog

GALAXY 30

AliveCommunicationsGEO
NORAD 46114·PAYLOAD·🇺🇸 United States

Launched Aug 15, 2020 from Guiana Space Centre

Loading…

TLE

FreshSource: CelesTrak SupGP

Epoch: Sep 14, 2026, 00:00 UTC

1 46114C 20056C   26257.00000000  .00000132  00000+0  00000+0 0  2572
2 46114   0.0000 156.5902 0002142   6.4168  64.9808  1.00270815    10

Track GALAXY 30 in real time with AllMySat

Download on the App Store